Weather History for Marfa, TX

Change the Weather History Date:

Monday, July 14, 2014

  Actual Average Record
Temperature  
Mean Temperature 73 °F -  
Max Temperature 86 °F 85 °F 95 °F (2001)
Min Temperature 60 °F 59 °F 57 °F (2002)
Cooling Degree Days 8    
Growing Degree Days 23 (Base 50)    
Moisture  
Dew Point 56 °F    
Average Humidity 57    
Maximum Humidity 82    
Minimum Humidity 33    
Precipitation  
Precipitation 0.07 in - - ()
Sea Level Pressure  
Sea Level Pressure 30.22 in    
Wind  
Wind Speed 5 mph (NW)    
Max Wind Speed 21 mph    
Max Gust Speed 26 mph    
Visibility 10 miles    
Events Thunderstorm    
Averages and records for this station are not official NWS values.
T = Trace of Precipitation, MM = Missing Value Source: NWS Daily Summary

Daily Weather History Graph

Daily Weather History Graph

Search for Another Location

Airport:

Trip Planner

Search our weather history database for the weather conditions in past years. The results will help you decide how hot, cold, wet, or windy it might be!

Date:

Astronomy

Jul. 14, 2014 Rise Set
Actual Time 7:03 AM CDT 8:59 PM CDT
Civil Twilight 6:36 AM CDT 9:26 PM CDT
Nautical Twilight 6:04 AM CDT 9:59 PM CDT
Astronomical Twilight 5:29 AM CDT 10:34 PM CDT
Moon 10:47 PM CDT (7/14) 9:35 AM CDT (7/14)
Length of Visible Light 14h 49m
Length of Day
13h 55m
Waning Gibbous, 93% of the Moon is Illuminated
Jul 14
Waning Gibbous
Jul 18
Last Quarter
Jul 26
New
Aug 3
First Quarter
Aug 10
Full

Hourly Weather History & Observations

Time (CDT) Temp. Heat Index Dew Point Humidity Pressure Visibility Wind Dir Wind Speed Gust Speed Precip Events Conditions
12:35 AM 73.4 °F - 55.4 °F 53% 30.25 in 10.0 mi East 5.8 mph - N/A   Clear
12:55 AM 69.8 °F - 55.4 °F 60% 30.25 in 10.0 mi North 3.5 mph - N/A   Clear
1:15 AM 66.2 °F - 55.4 °F 68% 30.25 in 10.0 mi NNW 3.5 mph - N/A   Clear
1:35 AM 64.4 °F - 55.4 °F 73% 30.25 in 10.0 mi NW 3.5 mph - N/A   Clear
2:15 AM 64.4 °F - 57.2 °F 77% 30.24 in 10.0 mi West 5.8 mph - N/A   Clear
2:35 AM 64.4 °F - 57.2 °F 77% 30.25 in 10.0 mi Calm Calm - N/A   Clear
2:55 AM 64.4 °F - 57.2 °F 77% 30.25 in 10.0 mi NNW 4.6 mph - N/A   Clear
3:15 AM 64.4 °F - 57.2 °F 77% 30.25 in 10.0 mi WNW 5.8 mph - N/A   Clear
3:35 AM 64.4 °F - 57.2 °F 77% 30.24 in 10.0 mi NW 3.5 mph - N/A   Clear
3:55 AM 62.6 °F - 55.4 °F 77% 30.24 in 10.0 mi NW 3.5 mph - N/A   Clear
4:15 AM 62.6 °F - 55.4 °F 77% 30.24 in 10.0 mi NNW 5.8 mph - N/A   Clear
4:35 AM 60.8 °F - 55.4 °F 82% 30.23 in 10.0 mi NNW 5.8 mph - N/A   Clear
4:55 AM 60.8 °F - 55.4 °F 82% 30.23 in 10.0 mi North 5.8 mph - N/A   Clear
5:15 AM 62.6 °F - 55.4 °F 77% 30.23 in 10.0 mi NNW 6.9 mph - N/A   Clear
5:35 AM 60.8 °F - 55.4 °F 82% 30.23 in 10.0 mi NNE 3.5 mph - N/A   Clear
5:55 AM 60.8 °F - 55.4 °F 82% 30.23 in 10.0 mi NNE 3.5 mph - N/A   Clear
6:15 AM 60.8 °F - 53.6 °F 77% 30.24 in 10.0 mi Calm Calm - N/A   Clear
6:35 AM 60.8 °F - 53.6 °F 77% 30.24 in 10.0 mi NNW 3.5 mph - N/A   Clear
6:55 AM 60.8 °F - 53.6 °F 77% 30.24 in 10.0 mi North 5.8 mph - N/A   Clear
7:15 AM 60.8 °F - 53.6 °F 77% 30.24 in 10.0 mi North 4.6 mph - N/A   Clear
7:35 AM 60.8 °F - 53.6 °F 77% 30.25 in 10.0 mi North 5.8 mph - N/A   Clear
7:55 AM 62.6 °F - 55.4 °F 77% 30.25 in 10.0 mi Calm Calm - N/A   Clear
8:15 AM 66.2 °F - 57.2 °F 73% 30.26 in 10.0 mi Calm Calm - N/A   Clear
8:55 AM 71.6 °F - 57.2 °F 60% 30.27 in 10.0 mi Calm Calm - N/A   Clear
9:15 AM 73.4 °F - 57.2 °F 57% 30.27 in 10.0 mi South 3.5 mph - N/A   Clear
9:35 AM 73.4 °F - 57.2 °F 57% 30.27 in 10.0 mi SE 3.5 mph - N/A   Clear
9:55 AM 75.2 °F - 57.2 °F 53% 30.27 in 10.0 mi SSE 3.5 mph - N/A   Clear
10:15 AM 75.2 °F - 57.2 °F 53% 30.27 in 10.0 mi Calm Calm - N/A   Clear
10:35 AM 77.0 °F - 57.2 °F 50% 30.27 in 10.0 mi South 4.6 mph - N/A   Partly Cloudy
10:55 AM 78.8 °F - 57.2 °F 47% 30.27 in 10.0 mi Calm Calm - N/A   Mostly Cloudy
11:15 AM 80.6 °F 80.8 °F 57.2 °F 45% 30.27 in 10.0 mi South 5.8 mph - N/A   Scattered Clouds
11:35 AM 80.6 °F 80.8 °F 57.2 °F 45% 30.26 in 10.0 mi South 5.8 mph - N/A   Clear
11:55 AM 82.4 °F 82.0 °F 57.2 °F 42% 30.26 in 10.0 mi South 5.8 mph - N/A   Clear
12:15 PM 82.4 °F 81.7 °F 55.4 °F 39% 30.26 in 10.0 mi South 5.8 mph - N/A Thunderstorm Clear
12:35 PM 84.2 °F 83.0 °F 55.4 °F 37% 30.25 in 10.0 mi Calm Calm - N/A Thunderstorm Clear
12:55 PM 86.0 °F 84.5 °F 55.4 °F 35% 30.25 in 10.0 mi WNW 11.5 mph 21.9 mph N/A Thunderstorm Thunderstorm
1:15 PM 80.6 °F 81.1 °F 59.0 °F 48% 30.25 in 10.0 mi NW 16.1 mph - 0.05 in Thunderstorm Mostly Cloudy
1:35 PM 73.4 °F - 62.6 °F 69% 30.25 in 10.0 mi NW 20.7 mph 26.5 mph 0.07 in Thunderstorm Overcast
1:55 PM 77.0 °F - 60.8 °F 57% 30.24 in 10.0 mi WNW 18.4 mph - 0.07 in Thunderstorm Partly Cloudy
2:15 PM 75.2 °F - 60.8 °F 61% 30.24 in 9.0 mi NW 11.5 mph - N/A Thunderstorm Partly Cloudy
2:35 PM 73.4 °F - 57.2 °F 57% 30.24 in 10.0 mi East 9.2 mph 16.1 mph N/A   Partly Cloudy
3:15 PM 73.4 °F - 60.8 °F 65% 30.23 in 10.0 mi East 8.1 mph - N/A   Clear
3:55 PM 75.2 °F - 57.2 °F 53% 30.20 in 10.0 mi East 4.6 mph - N/A   Clear
4:35 PM 80.6 °F 80.5 °F 55.4 °F 42% 30.19 in 10.0 mi Calm Calm - N/A   Clear
4:55 PM 82.4 °F 82.0 °F 57.2 °F 42% 30.18 in 10.0 mi SW 5.8 mph - N/A   Clear
5:15 PM 84.2 °F 83.0 °F 55.4 °F 37% 30.18 in 10.0 mi SSW 6.9 mph - N/A   Clear
5:35 PM 86.0 °F 84.5 °F 55.4 °F 35% 30.18 in 10.0 mi SSW 8.1 mph - N/A   Clear
5:55 PM 86.0 °F 84.9 °F 57.2 °F 37% 30.18 in 10.0 mi South 9.2 mph - N/A   Clear
6:15 PM 86.0 °F 84.5 °F 55.4 °F 35% 30.17 in 10.0 mi South 9.2 mph - N/A   Clear
6:35 PM 86.0 °F 84.5 °F 55.4 °F 35% 30.16 in 10.0 mi South 6.9 mph - N/A   Clear
6:55 PM 86.0 °F 84.2 °F 53.6 °F 33% 30.16 in 10.0 mi South 6.9 mph - N/A   Clear
7:15 PM 84.2 °F 82.8 °F 53.6 °F 35% 30.16 in 10.0 mi South 6.9 mph - N/A   Partly Cloudy
7:35 PM 84.2 °F 82.8 °F 53.6 °F 35% 30.16 in 10.0 mi SSE 8.1 mph - N/A   Clear
7:55 PM 82.4 °F 81.4 °F 53.6 °F 37% 30.16 in 10.0 mi SSE 4.6 mph - N/A   Clear
8:15 PM 82.4 °F 81.7 °F 55.4 °F 39% 30.17 in 10.0 mi SE 4.6 mph - N/A   Scattered Clouds
8:35 PM 80.6 °F 80.3 °F 53.6 °F 39% 30.16 in 10.0 mi ESE 5.8 mph - N/A   Partly Cloudy
8:55 PM 77.0 °F - 53.6 °F 44% 30.16 in 10.0 mi East 6.9 mph - N/A Thunderstorm Clear
9:15 PM 75.2 °F - 53.6 °F 47% 30.17 in 10.0 mi SE 6.9 mph - N/A Thunderstorm Partly Cloudy
9:35 PM 78.8 °F - 51.8 °F 39% 30.19 in 10.0 mi SSW 6.9 mph - N/A   Mostly Cloudy
9:55 PM 75.2 °F - 53.6 °F 47% 30.19 in 10.0 mi South 4.6 mph - N/A   Mostly Cloudy
10:15 PM 71.6 °F - 53.6 °F 53% 30.19 in 10.0 mi Calm Calm - N/A   Partly Cloudy
10:35 PM 69.8 °F - 55.4 °F 60% 30.20 in 10.0 mi North 3.5 mph - N/A   Clear
10:55 PM 69.8 °F - 53.6 °F 56% 30.21 in 10.0 mi NNW 3.5 mph - N/A   Clear
11:15 PM 66.2 °F - 53.6 °F 64% 30.21 in 10.0 mi North 6.9 mph - N/A   Clear
11:35 PM 66.2 °F - 53.6 °F 64% 30.22 in 10.0 mi NNE 5.8 mph - N/A   Clear
11:55 PM 66.2 °F - 55.4 °F 68% 30.22 in 10.0 mi NNW 8.1 mph - N/A   Clear